Location: Bannatyne
(13.0833°N, 59.5333°W)
Time: 11:50:31
(UTC+00:00)

Explorer 7 - Visible Passes

Search period start: 27 January 2020 00:00
Search period end: 06 February 2020 00:00
Orbit: 485 x 679 km, 50.3° (Epoch: 27 January)

Date Brightness Start Highest point End Pass type
(mag) Time Alt. Az. Time Alt. Az. Time Alt. Az.
27 Jan 9.0 00:05:25 10° WSW 00:07:17 23° WSW 00:07:17 23° WSW visible
27 Jan 9.6 08:42:45 10° NNE 08:44:13 12° NE 08:45:43 10° ENE visible
27 Jan 8.1 22:30:22 10° S 22:33:48 24° SE 22:36:24 14° ENE visible
28 Jan 9.5 00:11:13 10° W 00:12:46 16° WNW 00:12:46 16° WNW visible
28 Jan 8.8 08:47:31 18° NNE 08:49:12 22° NE 08:52:34 10° ESE visible
28 Jan 7.0 22:34:34 10° SSW 22:38:41 53° SE 22:41:52 15° NE visible
29 Jan 7.7 08:52:56 35° N 08:54:07 45° NE 08:58:14 10° SE visible
29 Jan 7.0 22:39:22 10° SW 22:43:34 69° NW 22:47:20 11° NNE visible
30 Jan 6.7 08:58:24 64° NW 08:59:00 83° SW 09:03:19 10° SE visible
30 Jan 8.4 22:44:41 10° WSW 22:48:27 31° NW 22:52:02 10° NNE visible
31 Jan 7.5 09:03:54 37° SW 09:03:54 37° SW 09:07:52 10° SSE visible
31 Jan 9.3 22:50:45 10° W 22:53:23 16° NW 22:55:56 10° N visible
01 Feb 8.6 09:09:23 18° SW 09:09:23 18° SW 09:11:42 10° S visible
